Theta_e
302 304 307 312 318 321 323 324 322 321 321 323 322 322 321 320 320 320 319 318 318 318
302 302 302 303 306 310 313 317 320 322 321 321 322 323 322 320 320 320 320 319 319 319
301 301 302 302 303 303 305 307 310 313 318 321 321 321 322 321 321 320 320 320 319 319
299 300 301 301 301 302 304 305 306 308 310 314 319 321 320 320 321 321 320 320 319 319
298 298 298 299 300 301 301 302 303 304 305 307 310 314 319 320 322 321 320 320 319 319
295 296 296 297 298 298 298 299 299 301 301 302 305 308 312 315 319 320 322 321 320 319
293 294 295 296 296 296 296 296 296 297 298 300 302 305 307 310 313 316 318 320 321 321
293 294 294 294 294 293 293 293 293 294 295 296 298 301 303 306 309 312 314 316 318 319
291 291 291 292 291 290 290 290 290 291 291 292 294 296 296 298 302 305 308 310 313 315
289 288 288 289 288 288 288 288 288 288 289 289 291 293 294 293 295 297 301 305 309 311
286 285 285 285 285 286 287 287 287 287 288 288 289 292 292 292 293 295 297 300 304 306
285 284 284 284 284 285 284 285 285 285 286 286 287 291 291 291 291 291 292 295 298 301
285 284 284 285 285 283 283 285 285 285 286 286 286 289 291 291 289 289 290 293 294 293
284 284 285 285 284 284 284 284 284 284 285 286 286 287 291 292 289 289 289 290 292 294
Wind_Speed
1 2 3 4 4 4 5 7 8 10 13 15 15 15 15 13 13 15 15 19 17 14
5 5 4 6 5 4 5 5 7 7 12 14 15 16 16 13 15 16 17 17 18 17
5 5 5 5 6 6 7 6 7 8 9 10 13 14 15 14 15 16 15 14 18 17
6 6 5 5 5 6 7 8 9 9 9 10 11 11 13 16 17 18 18 18 18 20
5 5 5 5 5 6 7 8 9 10 10 11 11 12 13 14 14 17 19 19 18 20
4 5 5 5 5 5 6 8 9 9 10 12 12 12 12 13 15 16 18 18 19 20
4 4 5 5 6 6 6 8 8 9 10 11 12 13 13 13 15 16 17 18 18 19
4 5 6 6 6 6 6 7 8 10 11 11 10 9 12 13 15 16 17 18 18 18
4 5 6 6 7 6 7 7 7 9 10 12 8 12 14 13 14 18 18 18 19 19
5 6 7 7 7 8 9 7 9 10 10 12 11 15 16 15 12 16 17 19 17 18
6 7 7 7 8 9 9 10 11 12 12 14 12 15 15 15 13 15 17 18 18 19
7 7 7 8 8 9 8 10 11 11 12 14 17 16 15 15 11 13 18 17 18 17
7 8 9 10 10 6 7 12 10 14 12 15 20 17 17 14 8 13 13 17 17 18
7 10 10 11 8 10 10 11 12 16 15 17 16 18 19 18 11 10 12 13 14 13
Wind_Direction
285 254 260 263 273 269 261 260 247 241 239 239 237 235 233 237 236 234 233 236 238 239
20 360 312 301 290 279 279 285 288 261 247 243 241 238 237 236 237 236 235 236 236 237
10 2 348 339 332 318 303 293 288 289 285 262 252 247 243 244 243 240 239 239 241 239
12 3 2 357 338 333 324 318 311 302 295 289 278 256 247 248 251 249 248 244 242 242
10 1 2 351 334 331 326 322 315 311 303 294 287 281 274 264 252 251 251 249 242 248
360 350 336 324 321 321 317 316 315 314 310 306 298 291 281 274 270 262 259 259 256 251
323 309 301 302 304 304 305 305 309 308 303 301 300 295 290 284 279 273 269 267 260 257
297 298 296 294 291 291 293 296 295 298 302 300 300 299 306 303 295 286 279 273 269 263
295 300 293 290 291 295 290 284 283 289 290 298 296 296 297 298 301 297 284 279 275 270
291 291 282 283 286 285 284 282 286 285 283 287 291 294 296 296 298 293 287 282 280 278
271 271 278 280 274 278 277 281 285 285 282 286 287 286 288 289 293 289 287 283 280 277
260 269 272 268 265 264 274 282 278 278 281 278 284 281 276 287 290 288 286 283 281 275
260 256 261 264 268 260 255 279 282 282 275 269 278 278 268 271 272 283 285 287 283 266
253 256 259 269 262 264 267 275 278 279 278 272 263 272 264 259 258 266 280 281 288 285